KNCWAYNE6 Weather Reports


Display with metric or nautical units.
time (UTC)temp
F
wind
direction
speed
MPH
gust
MPH
rain 1hr
in
rain 24hr
in
rain mn
in
humidity
%
barometer
mb
20260508230008 66 80 0.0 6.0 0.00 0.00 0.00 33 1015.7
20260508224512 66 19 2.0 8.0 0.00 0.00 0.00 32 1015.7
20260508223013 67 182 2.0 6.0 0.00 0.00 0.00 31 1015.6
20260508221520 68 43 2.0 8.0 0.00 0.00 0.00 32 1015.6
20260508220004 68 48 2.0 14.0 0.00 0.00 0.00 29 1015.6
20260508214509 69 265 2.0 12.0 0.00 0.00 0.00 27 1015.5
20260508213016 70 34 3.0 14.0 0.00 0.00 0.00 28 1015.6
20260508211520 69 306 4.0 9.0 0.00 0.00 0.00 27 1015.5
20260508210021 69 335 5.0 11.0 0.00 0.00 0.00 28 1015.5
20260508204506 69 32 2.0 7.0 0.00 0.00 0.00 26 1015.7
20260508203014 69 192 2.0 11.0 0.00 0.00 0.00 25 1015.7
20260508201514 69 42 1.0 12.0 0.00 0.00 0.00 26 1015.8
20260508200022 69 24 2.0 12.0 0.00 0.00 0.00 26 1015.8
20260508194504 69 177 4.0 11.0 0.00 0.00 0.00 25 1016.4
20260508193009 69 141 2.0 11.0 0.00 0.00 0.00 22 1016.7
20260508191514 70 103 1.0 10.0 0.00 0.00 0.00 21 1017.0
20260508190035 69 62 5.0 14.0 0.00 0.00 0.00 19 1016.9
20260508184530 69 39 2.0 9.0 0.00 0.00 0.00 22 1017.3
20260508183012 68 198 5.0 16.0 0.00 0.00 0.00 20 1017.3
20260508181510 68 334 7.0 14.0 0.00 0.00 0.00 22 1017.4
20260508180014 68 76 3.0 12.0 0.00 0.00 0.00 22 1017.5
20260508174520 68 334 3.0 16.0 0.00 0.00 0.00 24 1017.6
20260508173022 67 342 9.0 16.0 0.00 0.00 0.00 24 1017.9
20260508171508 66 315 6.0 10.0 0.00 0.00 0.00 34 1018.0
20260508170011 65 82 2.0 6.0 0.00 0.00 0.00 37 1018.3
20260508164523 63 5 2.0 5.0 0.00 0.00 0.00 36 1018.6
20260508163027 63 65 2.0 9.0 0.00 0.00 0.00 38 1019.1
20260508161523 62 78 1.0 9.0 0.00 0.00 0.00 38 1019.3
20260508160009 61 88 3.0 8.0 0.00 0.00 0.00 40 1019.5
20260508154515 61 78 1.0 8.0 0.00 0.00 0.00 38 1019.6
20260508153029 61 57 0.0 5.0 0.00 0.00 0.00 40 1019.9
20260508151523 59 71 2.0 6.0 0.00 0.00 0.00 40 1020.0
20260508150030 59 107 1.0 6.0 0.00 0.00 0.00 40 1020.1
20260508144518 58 355 1.0 6.0 0.00 0.00 0.00 46 1020.1
20260508143016 57 325 1.0 5.0 0.00 0.00 0.00 38 1020.3
20260508141522 56 92 0.0 8.0 0.00 0.00 0.00 43 1020.5
20260508140018 55 246 0.0 4.0 0.00 0.00 0.00 44 1020.6
20260508134509 54 351 0.0 3.0 0.00 0.00 0.00 45 1020.7
20260508133013 53 355 0.0 4.0 0.00 0.00 0.00 48 1020.7
20260508131516 51 346 0.0 4.0 0.00 0.00 0.00 51 1020.7
20260508130033 49 26 0.0 0.0 0.00 0.00 0.00 55 1020.7
20260508124508 47 26 0.0 3.0 0.00 0.00 0.00 59 1020.6
20260508123015 45 28 0.0 0.0 0.00 0.00 0.00 65 1020.6
20260508121516 43 28 0.0 0.0 0.00 0.00 0.00 65 1020.5
20260508120021 40 26 0.0 0.0 0.00 0.01 0.00 65 1020.2
20260508114523 39 76 0.0 0.0 0.00 0.03 0.00 65 1020.2
20260508113008 37 76 0.0 0.0 0.00 0.06 0.00 63 1019.9
20260508111514 37 76 0.0 0.0 0.00 0.10 0.00 63 1019.6
20260508110022 37 56 0.0 0.0 0.00 0.13 0.00 62 1019.5
20260508104529 38 56 0.0 0.0 0.00 0.17 0.00 62 1019.3
20260508103033 38 56 0.0 0.0 0.00 0.19 0.00 62 1019.1
20260508101528 38 56 0.0 0.0 0.00 0.21 0.00 62 1018.9
20260508100017 38 56 0.0 0.0 0.00 0.21 0.00 62 1018.8
20260508094524 39 56 0.0 0.0 0.00 0.21 0.00 62 1018.7
20260508093034 39 56 0.0 0.0 0.00 0.21 0.00 62 1018.6
20260508091532 39 56 0.0 0.0 0.00 0.21 0.00 62 1018.6
20260508090028 40 56 0.0 0.0 0.00 0.21 0.00 62 1018.5
20260508084517 40 56 0.0 0.0 0.00 0.21 0.00 62 1018.5
20260508083019 40 56 0.0 0.0 0.00 0.21 0.00 62 1018.4
20260508081524 40 56 0.0 1.0 0.00 0.21 0.00 62 1018.3
20260508080028 41 56 0.0 0.0 0.00 0.21 0.00 62 1018.2
20260508074528 41 56 0.0 0.0 0.00 0.21 0.00 62 1018.2
20260508073022 41 56 0.0 0.0 0.00 0.21 0.00 62 1018.3
20260508071524 41 56 0.0 0.0 0.00 0.21 0.00 62 1018.3
20260508070027 42 56 0.0 0.0 0.00 0.21 0.00 62 1018.4
20260508064533 42 56 0.0 0.0 0.00 0.21 0.00 61 1018.3
20260508063035 42 56 0.0 0.0 0.00 0.21 0.00 61 1018.3
20260508061522 43 56 0.0 3.0 0.00 0.22 0.00 62 1018.4
20260508060026 43 89 0.0 0.0 0.00 0.22 0.00 61 1018.5
20260508054526 43 89 0.0 0.0 0.00 0.22 0.00 61 1018.3
20260508053013 43 89 0.0 0.0 0.00 0.22 0.00 61 1018.3
20260508051514 44 89 0.0 0.0 0.00 0.22 0.00 61 1018.2
20260508050030 44 89 0.0 0.0 0.00 0.23 0.00 61 1018.3
20260508044504 44 89 0.0 0.0 0.00 0.26 0.00 61 1018.2
20260508043009 44 89 0.0 0.0 0.00 0.28 0.00 62 1018.0
20260508041515 44 89 0.0 0.0 0.00 0.29 0.00 62 1017.9
20260508040026 45 89 0.0 0.0 0.00 0.31 0.00 62 1017.9
20260508034524 45 89 0.0 0.0 0.00 0.35 0.31 62 1017.9
20260508033024 45 89 0.0 0.0 0.00 0.36 0.31 61 1018.1
20260508031511 46 89 0.0 0.0 0.00 0.36 0.31 62 1018.0
20260508030017 46 89 0.0 0.0 0.00 0.36 0.31 62 1018.0
20260508024520 46 89 0.0 0.0 0.00 0.36 0.31 62 1018.0
20260508023024 47 89 0.0 0.0 0.00 0.36 0.31 62 1017.9
20260508021526 47 89 0.0 0.0 0.00 0.36 0.31 61 1017.6
20260508020017 48 89 0.0 0.0 0.00 0.36 0.31 61 1017.3
20260508014522 48 89 0.0 0.0 0.00 0.38 0.31 61 1017.2
20260508013023 49 89 0.0 0.0 0.00 0.39 0.31 59 1016.7
20260508011525 50 89 0.0 0.0 0.00 0.39 0.31 58 1016.7
20260508010033 51 89 0.0 0.0 0.00 0.40 0.31 57 1016.5
20260508004513 52 89 0.0 0.0 0.00 0.41 0.31 55 1016.4
20260508003018 53 89 0.0 0.0 0.00 0.42 0.31 54 1016.2
20260508001539 53 89 0.0 0.0 0.00 0.43 0.31 53 1016.1
20260508000024 54 89 0.0 0.0 0.00 0.46 0.31 53 1015.8
20260507234526 55 89 1.0 3.0 0.00 0.48 0.31 52 1015.6
20260507233017 55 72 1.0 5.0 0.00 0.49 0.31 51 1015.5
20260507231527 55 72 2.0 9.0 0.00 0.52 0.31 52 1015.6